User: anonymous   Login
Location: Unspecified
(0.0000°N, 0.0000°E)
Time: 19:41:05
(UTC+02:00)
Language:

Cosmos 1953 Rocket - Orbit

View from above orbital plane
View from above orbital plane
View from above satellite
View from above satellite

Ground track
Ground track

The orbit data is extracted from the following two-line orbital elements,

1 19211U 88050B   17144.25314751 +.00000083 +00000-0 +72517-5 0  9998
2 19211 082.5280 224.7996 0021538 192.3360 220.3713 14.82960722563242
Epoch (UTC): 24 May 2017 06:04:31
Eccentricity: 0.0021538
inclination: 82.5280°
perigee height: 605 km
apogee height: 635 km
right ascension of ascending node: 224.7996°
argument of perigee: 192.3360°
revolutions per day: 14.82960722
mean anomaly at epoch: 220.3713°
orbit number at epoch: 56324

The dashed part of the orbit path shows where the satellite is in the earth's shadow,  

DLR